FW3819 Weather Reports


Display with metric or nautical units.
time (UTC)temp
F
wind
direction
speed
MPH
gust
MPH
rain 1hr
in
rain 24hr
in
rain mn
in
humidity
%
barometer
mb
20260505233830 80 127 2.0 7.0 0.00 0.00 0.00 28 1010.5
20260505233332 80 188 3.0 12.0 0.00 0.00 0.00 28 1010.5
20260505232829 80 152 3.0 15.0 0.00 0.00 0.00 28 1010.4
20260505232330 81 168 3.0 15.0 0.00 0.00 0.00 27 1010.3
20260505232128 81 129 4.0 15.0 0.00 0.00 0.00 27 1010.5
20260505231332 81 164 4.0 15.0 0.00 0.00 0.00 26 1010.5
20260505230830 81 201 4.0 18.0 0.00 0.00 0.00 26 1010.6
20260505230330 81 126 6.0 24.0 0.00 0.00 0.00 26 1010.6
20260505225827 82 234 7.0 24.0 0.00 0.00 0.00 25 1010.7
20260505225322 82 143 6.0 23.0 0.00 0.00 0.00 26 1010.6
20260505224815 82 180 5.0 22.0 0.00 0.00 0.00 25 1010.4
20260505224309 81 196 6.0 26.0 0.00 0.00 0.00 25 1010.6
20260505223803 82 160 5.0 26.0 0.00 0.00 0.00 25 1010.6
20260505223303 81 129 5.0 22.0 0.00 0.00 0.00 25 1010.6
20260505222804 82 201 5.0 22.0 0.00 0.00 0.00 25 1010.6
20260505222305 82 211 4.0 19.0 0.00 0.00 0.00 26 1010.5
20260505222100 82 167 5.0 22.0 0.00 0.00 0.00 26 1010.6
20260505221303 83 135 5.0 22.0 0.00 0.00 0.00 26 1010.5
20260505220804 83 86 4.0 15.0 0.00 0.00 0.00 27 1010.5
20260505220557 83 175 5.0 15.0 0.00 0.00 0.00 27 1010.4
20260505215801 83 198 6.0 19.0 0.00 0.00 0.00 27 1010.5
20260505215304 83 225 5.0 19.0 0.00 0.00 0.00 25 1010.5
20260505214802 83 229 4.0 15.0 0.00 0.00 0.00 26 1010.5
20260505214303 83 160 5.0 19.0 0.00 0.00 0.00 26 1010.6
20260505213801 83 188 6.0 19.0 0.00 0.00 0.00 26 1010.5
20260505213359 83 178 7.0 26.0 0.00 0.00 0.00 25 1010.5
20260505213339 83 189 7.0 26.0 0.00 0.00 0.00 25 1010.4
20260505212305 83 127 7.0 23.0 0.00 0.00 0.00 25 1010.4
20260505211802 84 237 6.0 23.0 0.00 0.00 0.00 26 1010.6
20260505211302 83 148 5.0 20.0 0.00 0.00 0.00 26 1010.4
20260505210805 83 187 4.0 16.0 0.00 0.00 0.00 27 1010.3
20260505210602 83 289 4.0 15.0 0.00 0.00 0.00 27 1010.5
20260505205805 84 138 5.0 16.0 0.00 0.00 0.00 26 1010.4
20260505205306 84 129 5.0 22.0 0.00 0.00 0.00 26 1010.6
20260505204802 84 178 5.0 22.0 0.00 0.00 0.00 26 1010.3
20260505204303 85 158 4.0 18.0 0.00 0.00 0.00 27 1010.3
20260505204053 85 234 4.0 18.0 0.00 0.00 0.00 27 1010.3
20260505203303 85 140 4.0 20.0 0.00 0.00 0.00 27 1010.3
20260505202802 85 132 5.0 23.0 0.00 0.00 0.00 28 1010.2
20260505202305 85 113 6.0 23.0 0.00 0.00 0.00 26 1010.2
20260505201802 86 213 5.0 19.0 0.00 0.00 0.00 26 1010.1
20260505201557 87 134 4.0 15.0 0.00 0.00 0.00 26 1010.1
20260505200802 87 143 4.0 20.0 0.00 0.00 0.00 27 1010.2
20260505200305 87 128 4.0 20.0 0.00 0.00 0.00 26 1010.2
20260505195801 87 178 3.0 12.0 0.00 0.00 0.00 27 1010.3
20260505195557 88 188 4.0 15.0 0.00 0.00 0.00 26 1010.3
20260505194803 87 183 4.0 18.0 0.00 0.00 0.00 26 1010.4
20260505194257 86 127 5.0 27.0 0.00 0.00 0.00 26 1010.5
20260505194048 86 152 5.0 27.0 0.00 0.00 0.00 25 1010.6
20260505193245 86 135 5.0 19.0 0.00 0.00 0.00 25 1010.5
20260505192739 85 169 6.0 24.0 0.00 0.00 0.00 26 1010.5
20260505192531 85 172 7.0 24.0 0.00 0.00 0.00 26 1010.6
20260505191733 85 248 7.0 23.0 0.00 0.00 0.00 25 1010.8
20260505191234 86 196 6.0 23.0 0.00 0.00 0.00 26 1010.9
20260505190733 86 191 5.0 20.0 0.00 0.00 0.00 24 1011.0
20260505190235 86 104 5.0 18.0 0.00 0.00 0.00 24 1011.2
20260505185732 87 128 5.0 18.0 0.00 0.00 0.00 24 1011.1
20260505185234 87 105 5.0 23.0 0.00 0.00 0.00 26 1011.3
20260505185033 85 208 6.0 23.0 0.00 0.00 0.00 25 1011.3
20260505184231 86 227 6.0 19.0 0.00 0.00 0.00 25 1011.4
20260505183732 86 184 6.0 19.0 0.00 0.00 0.00 25 1011.5
20260505183233 85 237 5.0 16.0 0.00 0.00 0.00 26 1011.6
20260505182734 86 208 5.0 18.0 0.00 0.00 0.00 26 1011.6
20260505182231 85 173 6.0 22.0 0.00 0.00 0.00 26 1011.7
20260505181730 85 126 6.0 22.0 0.00 0.00 0.00 27 1011.7
20260505181231 85 198 5.0 19.0 0.00 0.00 0.00 28 1011.6
20260505180730 85 158 5.0 18.0 0.00 0.00 0.00 28 1011.8
20260505180232 84 211 5.0 18.0 0.00 0.00 0.00 27 1011.8
20260505175731 85 178 4.0 15.0 0.00 0.00 0.00 29 1011.8
20260505175227 85 131 5.0 20.0 0.00 0.00 0.00 28 1011.9
20260505174721 85 161 5.0 20.0 0.00 0.00 0.00 29 1012.0
20260505174221 84 239 6.0 22.0 0.00 0.00 0.00 29 1012.0
20260505174020 84 171 6.0 22.0 0.00 0.00 0.00 28 1012.2
20260505173223 84 187 5.0 20.0 0.00 0.00 0.00 27 1012.2
20260505172719 84 256 4.0 19.0 0.00 0.00 0.00 28 1012.2
20260505172521 85 181 4.0 20.0 0.00 0.00 0.00 29 1012.2
20260505171720 84 187 5.0 20.0 0.00 0.00 0.00 31 1012.3
20260505171220 83 213 5.0 18.0 0.00 0.00 0.00 29 1012.2
20260505170719 83 208 4.0 15.0 0.00 0.00 0.00 31 1012.3
20260505170220 83 126 3.0 16.0 0.00 0.00 0.00 31 1012.3
20260505170120 82 249 3.0 12.0 0.00 0.00 0.00 37 1012.3
20260505170112 83 162 3.0 16.0 0.00 0.00 0.00 34 1012.3
20260505164721 82 279 4.0 12.0 0.00 0.00 0.00 35 1012.4
20260505164516 83 166 2.0 9.0 0.00 0.00 0.00 35 1012.6
20260505163720 82 353 2.0 9.0 0.00 0.00 0.00 37 1012.5
20260505163221 82 75 2.0 9.0 0.00 0.00 0.00 39 1012.6
20260505162722 82 196 2.0 8.0 0.00 0.00 0.00 38 1012.7
20260505162218 82 95 2.0 8.0 0.00 0.00 0.00 40 1012.8
20260505162018 81 162 2.0 8.0 0.00 0.00 0.00 37 1013.0
20260505161327 81 23 2.0 9.0 0.00 0.00 0.00 40 1013.1
20260505161304 81 181 2.0 8.0 0.00 0.00 0.00 40 1013.1
20260505160512 80 213 2.0 9.0 0.00 0.00 0.00 40 1013.1
20260505153218 79 110 2.0 8.0 0.00 0.00 0.00 39 1013.3
20260505152716 79 54 2.0 8.0 0.00 0.00 0.00 38 1013.4
20260505152217 78 105 2.0 8.0 0.00 0.00 0.00 40 1013.4
20260505151718 78 73 2.0 7.0 0.00 0.00 0.00 42 1013.4
20260505151216 77 110 3.0 9.0 0.00 0.00 0.00 42 1013.3
20260505151009 76 164 2.0 11.0 0.00 0.00 0.00 43 1013.3
20260505150216 77 174 2.0 11.0 0.00 0.00 0.00 42 1013.3
20260505140209 71 171 3.0 7.0 0.00 0.00 0.00 48 1013.5
20260505130202 67 162 1.0 5.0 0.00 0.00 0.00 52 1013.6
20260505125000 66 205 2.0 7.0 0.00 0.00 0.00 53 1013.9
20260505124202 65 155 2.0 8.0 0.00 0.00 0.00 53 1013.8
20260505123701 65 234 2.0 8.0 0.00 0.00 0.00 55 1013.8
20260505123203 64 136 1.0 5.0 0.00 0.00 0.00 55 1013.7
20260505122703 64 171 1.0 7.0 0.00 0.00 0.00 56 1013.7
20260505122253 63 100 2.0 9.0 0.00 0.00 0.00 58 1013.8
20260505122234 64 162 1.0 9.0 0.00 0.00 0.00 56 1013.7
20260505121203 63 198 2.0 5.0 0.00 0.00 0.00 58 1013.7
20260505120704 63 178 1.0 5.0 0.00 0.00 0.00 58 1013.6
20260505120204 62 125 1.0 5.0 0.00 0.00 0.00 58 1013.6
20260505115954 62 153 1.0 4.0 0.00 0.00 0.00 59 1013.6
20260505115202 62 134 1.0 4.0 0.00 0.00 0.00 59 1013.6
20260505114702 61 121 1.0 4.0 0.00 0.00 0.00 60 1013.5
20260505114203 61 117 1.0 3.0 0.00 0.00 0.00 61 1013.5
20260505113704 61 116 1.0 4.0 0.00 0.00 0.00 62 1013.4
20260505113203 60 100 1.0 4.0 0.00 0.00 0.00 62 1013.4
20260505112703 60 73 1.0 3.0 0.00 0.00 0.00 63 1013.4
20260505112201 60 143 1.0 4.0 0.00 0.00 0.00 62 1013.4
20260505111704 60 100 1.0 4.0 0.00 0.00 0.00 61 1013.4
20260505111452 60 100 1.0 3.0 0.00 0.00 0.00 61 1013.3
20260505110701 60 113 1.0 4.0 0.00 0.00 0.00 61 1013.2
20260505110200 60 100 1.0 4.0 0.00 0.00 0.00 61 1013.2
20260505102136 58 117 1.0 3.0 0.00 0.00 0.00 67 1012.8
20260505101636 58 108 1.0 3.0 0.00 0.00 0.00 67 1012.8
20260505101137 58 143 1.0 3.0 0.00 0.00 0.00 67 1012.8
20260505100633 58 73 1.0 3.0 0.00 0.00 0.00 68 1012.8
20260505100134 58 100 1.0 3.0 0.00 0.00 0.00 68 1012.7
20260505095633 58 73 1.0 3.0 0.00 0.00 0.00 67 1012.8
20260505095434 58 82 1.0 4.0 0.00 0.00 0.00 68 1012.7
20260505094633 58 107 1.0 4.0 0.00 0.00 0.00 68 1012.7
20260505094137 57 82 1.0 4.0 0.00 0.00 0.00 69 1012.6
20260505093637 57 100 1.0 3.0 0.00 0.00 0.00 70 1012.6
20260505093134 57 54 1.0 3.0 0.00 0.00 0.00 70 1012.5
20260505092632 57 110 1.0 3.0 0.00 0.00 0.00 71 1012.6
20260505092131 56 89 1.0 3.0 0.00 0.00 0.00 73 1012.5
20260505091630 56 69 1.0 3.0 0.00 0.00 0.00 72 1012.5
20260505091131 56 100 1.0 3.0 0.00 0.00 0.00 75 1012.4
20260505090632 56 11 1.0 3.0 0.00 0.00 0.00 75 1012.4
20260505090130 56 70 1.0 4.0 0.00 0.00 0.00 76 1012.4
20260505085629 55 54 1.0 4.0 0.00 0.00 0.00 77 1012.3
20260505085430 55 11 1.0 3.0 0.00 0.00 0.00 79 1012.4
20260505084629 55 82 1.0 3.0 0.00 0.00 0.00 79 1012.5
20260505084427 55 28 0.0 3.0 0.00 0.00 0.00 79 1012.5
20260505083630 55 54 0.0 1.0 0.00 0.00 0.00 79 1012.5
20260505083129 55 11 0.0 1.0 0.00 0.00 0.00 80 1012.5
20260505082630 54 54 0.0 1.0 0.00 0.00 0.00 80 1012.5
20260505082428 55 296 0.0 1.0 0.00 0.00 0.00 80 1012.5
20260505081630 55 54 1.0 1.0 0.00 0.00 0.00 80 1012.5
20260505081129 54 54 0.0 1.0 0.00 0.00 0.00 80 1012.3
20260505080629 54 11 0.0 1.0 0.00 0.00 0.00 80 1012.4
20260505080130 54 100 0.0 1.0 0.00 0.00 0.00 80 1012.4
20260505075629 54 279 0.0 1.0 0.00 0.00 0.00 80 1012.4
20260505075130 55 54 0.0 1.0 0.00 0.00 0.00 80 1012.4
20260505074631 55 54 0.0 1.0 0.00 0.00 0.00 80 1012.2
20260505074131 55 11 0.0 1.0 0.00 0.00 0.00 81 1012.4
20260505073623 55 54 0.0 3.0 0.00 0.00 0.00 80 1012.4
20260505073118 55 54 0.0 3.0 0.00 0.00 0.00 80 1012.3
20260505072616 55 82 0.0 1.0 0.00 0.00 0.00 80 1012.2
20260505072109 55 100 1.0 1.0 0.00 0.00 0.00 81 1012.2
20260505071603 54 82 1.0 1.0 0.00 0.00 0.00 81 1012.2
20260505071356 55 100 0.0 1.0 0.00 0.00 0.00 80 1012.2
20260505070603 55 54 0.0 1.0 0.00 0.00 0.00 80 1012.3
20260505070104 55 54 0.0 3.0 0.00 0.00 0.00 80 1012.2
20260505065604 55 82 1.0 3.0 0.00 0.00 0.00 80 1012.2
20260505065352 55 73 1.0 3.0 0.00 0.00 0.00 80 1012.2
20260505064601 55 82 1.0 3.0 0.00 0.00 0.00 79 1012.1
20260505064358 55 73 1.0 3.0 0.00 0.00 0.00 79 1012.1
20260505063601 55 37 1.0 3.0 0.00 0.00 0.00 78 1012.1
20260505063104 55 11 1.0 3.0 0.00 0.00 0.00 78 1012.2
20260505062601 55 54 1.0 3.0 0.00 0.00 0.00 77 1012.2
20260505062103 55 73 0.0 3.0 0.00 0.00 0.00 77 1012.1
20260505061602 56 11 1.0 3.0 0.00 0.00 0.00 77 1012.2
20260505061104 56 261 1.0 3.0 0.00 0.00 0.00 76 1012.2
20260505060601 56 326 0.0 3.0 0.00 0.00 0.00 76 1012.1
20260505055858 56 11 0.0 1.0 0.00 0.00 0.00 75 1012.1
20260505055357 56 54 0.0 1.0 0.00 0.00 0.00 74 1012.1
20260505054602 57 54 0.0 1.0 0.00 0.00 0.00 74 1012.2
20260505054101 57 54 0.0 1.0 0.00 0.00 0.00 73 1012.2
20260505053603 57 11 0.0 1.0 0.00 0.00 0.00 73 1012.1
20260505053102 57 54 0.0 1.0 0.00 0.00 0.00 73 1012.2
20260505052851 57 11 0.0 1.0 0.00 0.00 0.00 72 1012.2
20260505052104 57 82 0.0 1.0 0.00 0.00 0.00 72 1012.2
20260505051602 57 100 0.0 1.0 0.00 0.00 0.00 72 1012.2
20260505051351 58 54 0.0 3.0 0.00 0.00 0.00 71 1012.3
20260505050652 58 82 1.0 1.0 0.00 0.00 0.00 71 1012.2
20260505050637 58 54 1.0 3.0 0.00 0.00 0.00 71 1012.2
20260505041600 60 54 0.0 3.0 0.00 0.00 0.00 65 1012.3
20260505041101 60 54 1.0 3.0 0.00 0.00 0.00 66 1012.2
20260505040602 60 67 1.0 3.0 0.00 0.00 0.00 65 1012.2
20260505035603 60 11 1.0 3.0 0.00 0.00 0.00 64 1012.2
20260505035101 60 21 1.0 3.0 0.00 0.00 0.00 64 1012.0
20260505034603 60 54 1.0 3.0 0.00 0.00 0.00 63 1012.0
20260505034353 61 73 0.0 3.0 0.00 0.00 0.00 64 1012.0
20260505033602 61 73 0.0 5.0 0.00 0.00 0.00 62 1012.0
20260505033101 61 73 1.0 5.0 0.00 0.00 0.00 63 1012.0
20260505032602 62 11 1.0 1.0 0.00 0.00 0.00 62 1012.0
20260505032101 62 326 1.0 3.0 0.00 0.00 0.00 62 1012.0
20260505031602 63 100 1.0 3.0 0.00 0.00 0.00 60 1012.0
20260505031102 63 70 1.0 3.0 0.00 0.00 0.00 58 1012.0
20260505030602 64 0 1.0 3.0 0.00 0.00 0.00 58 1012.0
20260505030352 64 28 0.0 1.0 0.00 0.00 0.00 56 1012.0
20260505025601 65 54 0.0 1.0 0.00 0.00 0.00 54 1011.9
20260505025102 65 326 0.0 1.0 0.00 0.00 0.00 53 1011.9
20260505024603 65 54 1.0 4.0 0.00 0.00 0.00 53 1012.0
20260505024353 65 234 1.0 4.0 0.00 0.00 0.00 52 1012.1
20260505023953 66 117 1.0 5.0 0.00 0.00 0.00 52 1012.1
20260505023947 66 100 1.0 5.0 0.00 0.00 0.00 52 1012.0
20260505022605 65 234 1.0 3.0 0.00 0.00 0.00 53 1012.1
20260505022154 65 100 1.0 4.0 0.00 0.00 0.00 54 1012.0
20260505022139 65 143 1.0 4.0 0.00 0.00 0.00 54 1012.1
20260505021102 65 158 1.0 3.0 0.00 0.00 0.00 56 1012.0
20260505020602 65 100 1.0 3.0 0.00 0.00 0.00 57 1012.1
20260505020354 65 143 1.0 3.0 0.00 0.00 0.00 54 1011.9
20260505015601 65 54 1.0 3.0 0.00 0.00 0.00 54 1011.8
20260505015101 65 11 1.0 3.0 0.00 0.00 0.00 54 1011.9
20260505014601 66 54 1.0 3.0 0.00 0.00 0.00 52 1011.8
20260505014101 66 11 1.0 3.0 0.00 0.00 0.00 53 1011.8
20260505013601 67 54 1.0 3.0 0.00 0.00 0.00 51 1011.7
20260505013101 67 188 1.0 3.0 0.00 0.00 0.00 49 1011.7
20260505012602 68 326 1.0 3.0 0.00 0.00 0.00 48 1011.6
20260505012103 67 54 1.0 3.0 0.00 0.00 0.00 50 1011.6
20260505011601 68 100 1.0 3.0 0.00 0.00 0.00 50 1011.7
20260505011101 69 296 1.0 3.0 0.00 0.00 0.00 45 1011.5
20260505010847 70 100 1.0 4.0 0.00 0.00 0.00 44 1011.4
20260505010840 70 129 1.0 4.0 0.00 0.00 0.00 43 1011.4
20260505010756 69 89 0.0 3.0 0.00 0.00 0.00 45 1011.4
20260505010214 69 11 0.0 3.0 0.00 0.00 0.00 44 1011.4
20260505004602 71 143 1.0 5.0 0.00 0.00 0.00 42 1011.4
20260505004101 71 234 1.0 5.0 0.00 0.00 0.00 41 1011.3
20260505003555 72 160 1.0 4.0 0.00 0.00 0.00 40 1011.3
20260505003345 72 174 1.0 4.0 0.00 0.00 0.00 40 1011.3
20260505002543 72 125 1.0 4.0 0.00 0.00 0.00 39 1011.2
20260505002039 73 143 1.0 5.0 0.00 0.00 0.00 39 1011.2
20260505001530 73 153 1.0 5.0 0.00 0.00 0.00 38 1011.3
20260505001030 73 143 1.0 7.0 0.00 0.00 0.00 38 1011.2
20260505000532 73 175 2.0 7.0 0.00 0.00 0.00 37 1011.2
20260505000330 73 208 2.0 11.0 0.00 0.00 0.00 37 1011.2
20260504235532 74 338 2.0 11.0 0.00 0.00 0.00 37 1011.1
20260504235323 74 188 2.0 9.0 0.00 0.00 0.00 37 1011.1
20260504234531 74 234 2.0 8.0 0.00 0.00 0.00 36 1011.1
20260504234031 74 171 2.0 8.0 0.00 0.00 0.00 36 1011.1